Content
SEND FEEDBACK

Daily
Averages
Monthly
Summary
Norway

KONGSVINGER, NORWAY


Home > Europe > Norway
Elevation: 203 meters     Latitude: 60 12N     Longitude: 011 05E

WEATHER
 
SELECT A DAY
Number of Records: 287,477;   Date Range: 7/1/96 - 7/29/14
 
SHARE

PRINT THIS DATA

[ ← Previous Day ]
WEATHER ALMANAC - 31 JANUARY, 2013
[ Next Day → ]
[ °F ]   °C
Weather ElementAverageHighLow
Temperature0.1 °C2 °C (2:40 am)-5 °C (8:10 pm)
Dewpoint-3.9 °C0 °C (12:42 am)-8 °C (9:41 pm)
Humidity74.9 %100 % (5:12 am)48 % (1:00 pm)
Barometer983.4 hPa992.2 hPa (11:40 pm)971.2 hPa (12:42 am)
Wind Speed9 km/h24.1 km/h (6:13 am)
Weather ElementAverage
Visibility22.5 km
Wind DirectionWSW (240 °)

Weather ElementTotal
Precipitation---
Heating Degree Days19.8 (Base 18.3)
Averaged from 51 records on 31 January, 2013
WEATHER CONDITIONS BREAKOUT
WIND DIRECTION BREAKOUT
WEATHER BY HOUR - 31 JANUARY, 2013
[ °F ]   °C
Local TimeTemperatureDewpointHumidityBarometerVisibilityWind DirectionWind SpeedGust SpeedPrecipitationEventsConditions
12:42 AM1 °C0 °C93 %971.2 hPa10 kmSouth (180°)14.8 km/hOvercast
1:00 AM1.7 °C0 °C86 %19.3 kmSouth (180°)14.3 km/hPartly Cloudy
1:12 AM1 °C0 °C93 %971.2 hPa10 kmSouth (190°)14.8 km/hMostly Cloudy
1:40 AM1 °C0 °C93 %971.2 hPa10 kmSSW (200°)14.8 km/hMostly Cloudy
2:10 AM1 °C0 °C93 %971.2 hPa10 kmSSW (200°)9.3 km/hOvercast
2:40 AM2 °C0 °C87 %972.2 hPa10 kmSW (220°)5.6 km/hRainLight Rain Showers
3:11 AM2 °C0 °C87 %972.2 hPa10 kmSW (220°)5.6 km/hMostly Cloudy
3:43 AM2 °C0 °C87 %973.2 hPa10 kmVariable1.9 km/hMostly Cloudy
4:11 AM1 °C0 °C93 %973.2 hPa10 kmVariable3.7 km/hMostly Cloudy
4:43 AM1 °C0 °C93 %974.3 hPa6.9 kmNorth (350°)9.3 km/hRain-SnowLight Rain Showers
5:12 AM0 °C0 °C100 %975.3 hPa10 kmNorth (350°)9.3 km/hLight Drizzle
5:41 AM1 °C0 °C93 %976 hPa10 kmNorth (350°)9.3 km/hMostly Cloudy
6:13 AM2 °C-1 °C81 %977 hPaNorth (350°)24.1 km/hClear
6:42 AM2 °C-1 °C81 %978 hPaNorth (350°)16.7 km/hClear
7:00 AM1.7 °C-0.6 °C80 %59.5 kmNorth (350°)18 km/hPartly Cloudy
7:10 AM2 °C-1 °C81 %980 hPaVariable3.7 km/hClear
7:40 AM2 °C-2 °C75 %980 hPaNNW (330°)9.3 km/hClear
8:10 AM2 °C-2 °C75 %981 hPaVariable3.7 km/hClear
8:40 AM1 °C-2 °C81 %982.1 hPaNNW (330°)9.3 km/hClear
9:10 AM1 °C-2 °C81 %983.1 hPaNorth (350°)13 km/hClear
9:41 AM1 °C-4 °C70 %984.1 hPaNorth (360°)18.5 km/hClear
10:10 AM2 °C-4 °C65 %984.1 hPaNorth (360°)16.7 km/hClear
10:40 AM2 °C-4 °C65 %985.1 hPaNorth (350°)11.1 km/hClear
11:10 AM2 °C-4 °C65 %986.1 hPaNW (310°)9.3 km/hClear
11:45 AM2 °C-6 °C56 %986.1 hPaNNW (340°)9.3 km/hClear
12:12 PM2 °C-5 °C60 %986.1 hPaNW (320°)9.3 km/hClear
12:40 PM2 °C-5 °C60 %987.1 hPaNW (310°)11.1 km/hClear
1:00 PM1.7 °C-5 °C48 %75.6 kmNNW (340°)14.3 km/hPartly Cloudy
1:10 PM2 °C-6 °C56 %987.1 hPaNNW (340°)13 km/hClear
1:40 PM2 °C-6 °C56 %987.1 hPaNorth (360°)11.1 km/hClear
2:10 PM2 °C-6 °C56 %987.1 hPaNNW (330°)13 km/hClear
2:40 PM2 °C-6 °C56 %988.1 hPaNNW (330°)7.4 km/hClear
3:11 PM2 °C-6 °C56 %988.1 hPaVariable1.9 km/hClear
3:42 PM1 °C-6 °C60 %988.1 hPaNNW (330°)5.6 km/hClear
4:10 PM0 °C-6 °C64 %988.1 hPaVariable3.7 km/hClear
4:40 PM1 °C-7 °C56 %988.1 hPaVariable3.7 km/hClear
5:10 PM-1 °C-7 °C64 %988.1 hPaVariable1.9 km/hClear
5:40 PM-1 °C-6 °C69 %989.2 hPaVariable1.9 km/hClear
6:18 PM-1 °C-6 °C69 %989.2 hPaWest (270°)5.6 km/hClear
6:40 PM-2 °C-6 °C74 %989.2 hPaWNW (290°)7.4 km/hClear
7:00 PM-2.2 °C-5.6 °C70 %75.6 kmWest (260°)3.5 km/hPartly Cloudy
7:10 PM-2 °C-6 °C74 %989.2 hPaWNW (290°)5.6 km/hClear
7:40 PM-4 °C-7 °C80 %990.2 hPaNNW (330°)5.6 km/hClear
8:10 PM-5 °C-7 °C86 %990.2 hPaWNW (300°)5.6 km/hClear
8:41 PM-3 °C-6 °C80 %990.2 hPaWNW (290°)7.4 km/hClear
9:10 PM-4 °C-7 °C80 %990.2 hPaNNW (330°)5.6 km/hClear
9:41 PM-5 °C-8 °C80 %991.2 hPaNorth (10°)5.6 km/hClear
10:10 PM-4 °C-8 °C74 %991.2 hPaNNW (340°)9.3 km/hClear
10:40 PM-4 °C-7 °C80 %991.2 hPaNW (320°)9.3 km/hClear
11:10 PM-5 °C-8 °C80 %991.2 hPaNorth (10°)7.4 km/hClear
11:40 PM-5 °C-8 °C80 %992.2 hPaNW (320°)7.4 km/hClear
Hourly data recorded from ENGM, located 0 kilometers away from Kongsvinger, Norway







STORIES FROM OUR PARTNERS